Overview Statistics Trail Chart Weather Telemetry Raw packets
 

This is the latest recevied weather packets stored in our database for station/object KE5QKR. If no packets are shown the sender has not sent any weather packets the latest 10 day(s).

<< 67 68 69 70 71 72 73 >>
Time Temp. Humidity Pressure Rain* Wind** Luminosity Snow
1777508313 25° C 85% 1009.6 hPa 0 mm - 0 W/m² -
1777508010 24.44° C 87% 1009.3 hPa 0 mm - 0 W/m² -
1777507706 24.44° C 88% 1009.2 hPa 0 mm - 1 W/m² -
1777507403 25° C 87% 1009.2 hPa 0 mm - 2 W/m² -
1777507101 25° C 87% 1009.3 hPa 0 mm - 2 W/m² -
1777506798 25° C 87% 1009.3 hPa 0 mm - 2 W/m² -
1777506495 25° C 87% 1009.7 hPa 0 mm - 2 W/m² -
1777506190 25° C 86% 1009.7 hPa 0 mm - 3 W/m² -
1777505886 25° C 86% 1009.7 hPa 0 mm - 3 W/m² -
1777505590 25° C 85% 1010.1 hPa 0 mm - 3 W/m² -
1777505279 25.56° C 85% 1009.8 hPa 0 mm - 2 W/m² -
1777504976 25.56° C 85% 1010.1 hPa 0 mm - 2 W/m² -
1777504673 25.56° C 84% 1010.1 hPa 0 mm - 4 W/m² -
1777504370 25.56° C 83% 1010.2 hPa 0 mm - 5 W/m² -
1777504070 25.56° C 84% 1009.9 hPa 0 mm - 8 W/m² -
1777503766 25.56° C 84% 1009.7 hPa 0 mm - 8 W/m² -
1777503463 25.56° C 83% 1009.9 hPa 0 mm - 11 W/m² -
1777503159 25.56° C 83% 1009.7 hPa 0 mm - 12 W/m² -
1777502857 25.56° C 83% 1009.4 hPa 0 mm - 14 W/m² -
1777502554 26.11° C 83% 1009.7 hPa 0 mm - 17 W/m² -
1777502251 26.11° C 82% 1009.4 hPa 0 mm - 21 W/m² -
1777501948 26.11° C 82% 1009.4 hPa 0 mm - 28 W/m² -
1777501645 26.11° C 82% 1008.8 hPa 0 mm - 36 W/m² -
1777501342 26.11° C 81% 1008.8 hPa 0 mm - 45 W/m² -
1777501040 26.11° C 81% 1008.9 hPa 0 mm - 47 W/m² -

* Rain latest hour (hover to see other rain measurements)
** Current wind speed in m/s (hover to see current wind gust speed)